Weather in Aktyubinskiy

Russia / Republic of Tatarstan     54°48′49″N   52°48′05″E
temp.,
°C
wind,
m/s
gust,
m/s
humid.,
%
clouds,
%
prec.,
mm/h
press.,
hPa
HPBL,
m
11 may, tue
tue1100:00+15e225412 0.0 102113
03:00+14e1158100 0.0 102311
06:00+17se125434 0.0 102479
09:00+22se224137 0.0 1025719
12:00+24ene223176 0.0 10252945
15:00+24ne543038 0.0 10252257
18:00+20ne37525 0.0 1026158
21:00+16ene22626 0.0 102732
12 may, wed
wed1200:00+14e116953 0.0 102711
03:00+14sse2272100 0.0 102815
06:00+18e126136 0.0 1028116
09:00+22e344410 0.0 10281064
12:00+24ese45325 0.0 10282380
15:00+24ese4433100 0.0 10272477
18:00+21sse225072 0.0 102739
21:00+16ssw225756 0.0 102811
13 may, thu
thu1300:00+15sse115474 0.0 102811
03:00+14ese2256100 0.0 102811
06:00+17ese245616 0.0 1028145
09:00+21se563861 0.0 1028937
12:00+24sse45335 0.0 10271524
15:00+25sse34335 0.0 10261611
18:00+22se34500 0.0 102672
21:00+18se22510 0.0 102616
14 may, fri
fri1400:00+16se225588 0.0 102614
03:00+15sse3256100 0.0 102620
06:00+18sse385712 0.0 1026250
09:00+23s58385 0.0 1025699
12:00+26ssw67310 0.0 10251387
15:00+26ssw66310 0.0 10241647
18:00+23s35495 0.0 102481
21:00+19s34535 0.0 102445
15 may, sat
sat1500:00+17ssw33535 0.0 102441
03:00+16s335125 0.0 102427
06:00+19s375516 0.0 1024183
09:00+25ssw57375 0.0 1024788
12:00+27ssw56285 0.0 10231808
15:00+27sw55283 0.0 10221980
18:00+24ssw23450 0.0 102130
21:00+19s33450 0.0 102119